This demonstration page uses our WeatherBlox Daily Observations layout. Learn more.

Left ArrowRight Arrow

Hourly Observations for June 10, 2017

Temp ( °F °C ) Dew Point ( °F °C ) Humidity (%) Winds ( mph kmh ) Pressure ( in mb ) Visibility ( mi km ) Precip ( " mm )
12:53 am 00:53 Clear 66 18.9 63 17.2 90 90 Calm 30.00 1016 10 16 0.00 0.00
1:53 am 01:53 Clear 64 17.8 63 17.2 96 96 Calm 29.99 1016 10 16 0.00 0.00
2:53 am 02:53 Clear 63 17.2 62 16.7 97 97 Calm 29.99 1016 10 16 0.00 0.00
3:53 am 03:53 Clear 63 17.2 62 16.7 97 97 Calm 29.99 1016 10 16 0.00 0.00
4:53 am 04:53 Mostly Clear 62 16.7 62 16.7 100 100 Calm 29.99 1016 10 16 0.00 0.00
5:53 am 05:53 Mostly Clear 62 16.7 62 16.7 100 100 Calm 30.01 1016 10 16 0.00 0.00
6:53 am 06:53 Sunny 62 16.7 62 16.7 100 100 NW 3 6 30.05 1018 10 16 0.00 0.00
7:53 am 07:53 Sunny 66 18.9 64 17.8 93 93 Calm 30.06 1018 10 16 0.00 0.00
8:53 am 08:53 Sunny 72 22.2 65 18.3 79 79 Calm 30.07 1018 10 16 0.00 0.00
9:53 am 09:53 Sunny 76 24.4 64 17.8 67 67 VRB 3 6 30.09 1019 10 16 0.00 0.00
10:53 am 10:53 Sunny 81 27.2 62 16.7 53 53 WSW 3 6 30.09 1019 10 16 0.00 0.00
11:53 am 11:53 Mostly Sunny 83 28.3 60 15.6 46 46 undefined N/A 30.10 1019 10 16 0.00 0.00
12:53 pm 12:53 Mostly Sunny 84 28.9 60 15.6 44 44 SSE 8 13 30.09 1019 10 16 0.00 0.00
1:53 pm 13:53 Partly Cloudy 84 28.9 60 15.6 44 44 Calm 30.09 1019 10 16 0.00 0.00
2:53 pm 14:53 Mostly Cloudy 84 28.9 60 15.6 44 44 S 8 13 30.07 1018 10 16 0.00 0.00
3:53 pm 15:53 Mostly Cloudy 84 28.9 59 15 43 43 SSE 8 13 30.06 1018 10 16 0.00 0.00
4:53 pm 16:53 Cloudy 84 28.9 59 15 43 43 S 5 7 30.05 1018 10 16 0.00 0.00
5:53 pm 17:53 Mostly Cloudy 84 28.9 60 15.6 44 44 SSE 9 15 30.04 1017 10 16 0.00 0.00
6:53 pm 18:53 Mostly Cloudy 83 28.3 61 16.1 48 48 S 6 9 30.04 1017 10 16 0.00 0.00
7:53 pm 19:53 Sunny 83 28.3 61 16.1 48 48 SSE 7 11 30.05 1018 10 16 0.00 0.00
8:53 pm 20:53 Clear 80 26.7 62 16.7 54 54 SE 5 7 30.06 1018 10 16 0.00 0.00
9:53 pm 21:53 Clear 72 22.2 65 18.3 79 79 Calm 30.09 1019 10 16 0.00 0.00
10:53 pm 22:53 Clear 70 21.1 65 18.3 84 84 N 3 6 30.11 1020 10 16 0.00 0.00
11:53 pm 23:53 Clear 68 20 65 18.3 90 90 Calm 30.12 1020 10 16 0.00 0.00

Powered by AerisWeather